Alma, GA

7:31 PM EST on February 19, 2018 (GMT -0500)
Bacon County

Weather History for KAMG - October, 2012

Change the Weather History Date:

Tuesday, October 30, 2012

  Actual Average Record
Temperature  
Mean Temperature 54 °F 64 °F  
Max Temperature 64 °F 76 °F 86 °F (1961)
Min Temperature 44 °F 53 °F 26 °F (1952)
Degree Days  
Heating Degree Days 11 3  
Month to date heating degree days 26 44  
Since 1 July heating degree days 26 46  
Cooling Degree Days 0 3  
Month to date cooling degree days 161 154  
Year to date cooling degree days 2648 2424  
Growing Degree Days 4 (Base 50)    
Moisture  
Dew Point 25 °F    
Average Humidity 36    
Maximum Humidity 53    
Minimum Humidity 19    
Precipitation  
Precipitation 0.00 in 0.09 in 2.07 in (1993)
Month to date precipitation 0.37 2.95  
Year to date precipitation 33.35 40.80  
Snow  
Snow 0.00 in 0.00 in 0.00 in ()
Month to date snowfall 0.0 0.0  
Since 1 July snowfall 0.0 0.0  
Since 1 September snowfall 0.0 0.0  
Snow Depth 0.00 in    
Sea Level Pressure  
Sea Level Pressure 29.77 in    
Wind  
Wind Speed 11 mph (West)    
Max Wind Speed 25 mph    
Max Gust Speed 33 mph    
Visibility 10 miles    
Events      
T = Trace of Precipitation, MM = Missing Value Source: NWS Daily Summary

Daily Weather History Graph

Daily Weather History Graph

Search for Another Location

Airport or City:

Trip Planner

Search our weather history database for the weather conditions in past years. The results will help you decide how hot, cold, wet, or windy it might be!

Date:

Astronomy

Oct. 30, 2012 Rise Set
Actual Time 7:44 AM EDT 6:42 PM EDT
Civil Twilight 7:19 AM EDT 7:07 PM EDT
Nautical Twilight 6:51 AM EDT 7:35 PM EDT
Astronomical Twilight 6:22 AM EDT 8:04 PM EDT
Moon 7:16 PM EDT (10/30) 8:25 AM EDT (10/30)
Length of Visible Light 11h 47m
Length of Day
10h 57m
Full, 99% of the Moon is Illuminated
Oct 30
Full
Nov 6
Last Quarter
Nov 13
New
Nov 20
First Quarter
Nov 28
Full

Hourly Weather History & Observations

Time (EDT) Temp. Windchill Dew Point Humidity Pressure Visibility Wind Dir Wind Speed Gust Speed Precip Events Conditions
12:53 AM 50.0 °F - 25.0 °F 38% 29.76 in 10.0 mi West 12.7 mph 18.4 mph N/A   Clear
1:53 AM 48.9 °F - 25.0 °F 39% 29.76 in 10.0 mi WNW 11.5 mph 20.7 mph N/A   Clear
2:53 AM 48.0 °F - 24.1 °F 39% 29.74 in 10.0 mi West 12.7 mph - N/A   Clear
3:53 AM 48.0 °F - 24.1 °F 39% 29.73 in 10.0 mi West 11.5 mph 18.4 mph N/A   Clear
4:53 AM 46.0 °F 41.0 °F 26.1 °F 46% 29.73 in 10.0 mi West 10.4 mph 19.6 mph N/A   Clear
5:53 AM 45.0 °F 39.3 °F 26.1 °F 48% 29.73 in 10.0 mi West 11.5 mph - N/A   Clear
7:53 AM 44.1 °F 40.1 °F 28.0 °F 53% 29.75 in 10.0 mi West 6.9 mph - N/A   Clear
8:53 AM 46.0 °F 41.4 °F 28.0 °F 50% 29.77 in 10.0 mi West 9.2 mph - N/A   Clear
9:53 AM 48.9 °F - 28.0 °F 44% 29.78 in 10.0 mi West 16.1 mph 23.0 mph N/A   Clear
10:53 AM 53.1 °F - 26.1 °F 35% 29.77 in 10.0 mi WNW 18.4 mph 26.5 mph N/A   Clear
11:53 AM 57.0 °F - 26.1 °F 30% 29.77 in 10.0 mi West 12.7 mph 19.6 mph N/A   Clear
12:53 PM 60.1 °F - 23.0 °F 24% 29.75 in 10.0 mi WNW 17.3 mph 23.0 mph N/A   Clear
1:53 PM 61.0 °F - 21.0 °F 21% 29.73 in 10.0 mi West 21.9 mph 26.5 mph N/A   Clear
2:53 PM 63.0 °F - 21.0 °F 20% 29.72 in 10.0 mi West 15.0 mph 27.6 mph N/A   Clear
3:53 PM 62.1 °F - 19.0 °F 19% 29.72 in 10.0 mi West 15.0 mph 29.9 mph N/A   Clear
4:53 PM 63.0 °F - 21.0 °F 20% 29.72 in 10.0 mi West 19.6 mph 27.6 mph N/A   Clear
5:53 PM 61.0 °F - 19.0 °F 20% 29.74 in 10.0 mi West 11.5 mph 21.9 mph N/A   Clear
6:53 PM 57.0 °F - 21.0 °F 25% 29.76 in 10.0 mi West 8.1 mph - N/A   Clear
7:53 PM 53.1 °F - 24.1 °F 32% 29.78 in 10.0 mi WSW 5.8 mph - N/A   Clear
8:53 PM 52.0 °F - 25.0 °F 35% 29.82 in 10.0 mi West 4.6 mph - N/A   Clear
9:53 PM 48.9 °F - 27.0 °F 43% 29.86 in 10.0 mi WSW 3.5 mph - N/A   Clear
10:53 PM 46.0 °F 44.8 °F 28.0 °F 50% 29.88 in 10.0 mi WSW 3.5 mph - N/A   Clear
11:53 PM 46.0 °F 43.1 °F 28.0 °F 50% 29.88 in 10.0 mi WSW 5.8 mph - N/A   Clear